This is the latest recevied weather packets stored in our database for station/object EA4BHK-10. If no packets are shown the sender has not sent any weather packets the latest 10 day(s).
| Time | Temp. | Humidity | Pressure | Rain* | Wind** | Luminosity | Snow |
|---|---|---|---|---|---|---|---|
| 1788085241 | 26.67° C | 21% | 1016.7 hPa | - | - | - | - |
| 1788085165 | 26.67° C | 21% | 1016.7 hPa | - | - | - | - |
| 1788084265 | 26.11° C | 22% | 1017 hPa | - | - | - | - |
| 1788083424 | 25.56° C | 25% | 1017.3 hPa | - | - | - | - |
| 1788083365 | 25.56° C | 25% | 1017.3 hPa | - | - | - | - |
| 1788082465 | 25° C | 28% | 1017.7 hPa | - | - | - | - |
| 1788081565 | 23.33° C | 29% | 1018.1 hPa | - | - | - | - |
| 1788080665 | 22.22° C | 33% | 1018.6 hPa | - | - | - | - |
| 1788079765 | 20.56° C | 36% | 1019.1 hPa | - | - | - | - |
| 1788078865 | 19.44° C | 38% | 1019.5 hPa | - | - | - | - |
| 1788077965 | 18.89° C | 40% | 1019.9 hPa | - | - | - | - |
| 1788077323 | 17.22° C | 42% | 1020.5 hPa | - | - | - | - |
| 1788077065 | 17.22° C | 42% | 1020.5 hPa | - | - | - | - |
| 1788076165 | 16.11° C | 43% | 1021.1 hPa | - | - | - | - |
| 1788075265 | 15° C | 45% | 1021.6 hPa | - | - | - | - |
| 1788074365 | 13.89° C | 48% | 1022 hPa | - | - | - | - |
| 1788073465 | 12.78° C | 49% | 1022.6 hPa | - | - | - | - |
| 1788072565 | 11.67° C | 51% | 1023 hPa | - | - | - | - |
| 1788071665 | 10.56° C | 53% | 1023.2 hPa | - | - | - | - |
| 1788070765 | 10.56° C | 54% | 1023.3 hPa | - | - | - | - |
| 1788068868 | 10° C | 53% | 1023.3 hPa | - | - | - | - |
| 1788067968 | 10.56° C | 52% | 1023.2 hPa | - | - | - | - |
| 1788067068 | 10.56° C | 52% | 1023.1 hPa | - | - | - | - |
| 1788066176 | 10.56° C | 52% | 1023 hPa | - | - | - | - |
| 1788065268 | 10.56° C | 52% | 1022.9 hPa | - | - | - | - |
* Rain since midnight (hover to see other rain measurements)
** Current wind speed in m/s (hover to see current wind gust speed)